QPF
0.00 0.00 0.00 0.00 0.00 0.01 0.01 0.01 0.01 0.01 0.02 0.03 0.02 0.03 0.04 0.09 0.14 0.11 0.07 0.07 0.06 0.06 0.05 0.04 0.03 0.03 0.02 0.02 0.02 0.02 0.02 0.02 0.02 0.03 0.03 0.03 0.04 0.06 0.07 0.08 0.08 0.09 0.07 0.06
0.00 0.01 0.00 0.00 0.00 0.01 0.01 0.01 0.01 0.02 0.03 0.03 0.02 0.03 0.05 0.08 0.07 0.06 0.05 0.06 0.06 0.03 0.02 0.02 0.02 0.01 0.01 0.01 0.01 0.01 0.02 0.03 0.03 0.03 0.02 0.02 0.02 0.04 0.07 0.09 0.13 0.13 0.07 0.05
0.00 0.01 0.00 0.00 0.00 0.00 0.01 0.01 0.01 0.02 0.04 0.03 0.03 0.05 0.05 0.06 0.05 0.04 0.04 0.03 0.02 0.01 0.01 0.01 0.01 0.01 0.01 0.01 0.02 0.04 0.04 0.04 0.04 0.03 0.02 0.02 0.03 0.04 0.06 0.10 0.14 0.09 0.05 0.05
0.00 0.01 0.01 0.01 0.01 0.01 0.01 0.01 0.02 0.03 0.03 0.03 0.04 0.06 0.05 0.03 0.03 0.05 0.05 0.03 0.02 0.01 0.00 0.00 0.01 0.01 0.02 0.04 0.05 0.04 0.04 0.05 0.05 0.06 0.05 0.04 0.04 0.04 0.05 0.07 0.09 0.07 0.05 0.05
0.00 0.00 0.01 0.01 0.01 0.01 0.01 0.01 0.03 0.02 0.03 0.05 0.05 0.07 0.08 0.04 0.03 0.04 0.04 0.04 0.03 0.03 0.03 0.02 0.03 0.03 0.03 0.03 0.04 0.04 0.05 0.06 0.07 0.07 0.06 0.05 0.05 0.07 0.08 0.08 0.07 0.06 0.05 0.05
0.01 0.01 0.02 0.02 0.01 0.01 0.01 0.02 0.02 0.02 0.02 0.04 0.05 0.05 0.04 0.03 0.02 0.02 0.02 0.03 0.03 0.03 0.04 0.05 0.05 0.04 0.04 0.04 0.03 0.04 0.04 0.04 0.05 0.05 0.06 0.08 0.10 0.13 0.11 0.09 0.10 0.10 0.08 0.07
0.01 0.01 0.01 0.01 0.01 0.01 0.01 0.03 0.03 0.02 0.05 0.06 0.04 0.04 0.02 0.02 0.02 0.03 0.03 0.04 0.05 0.05 0.05 0.04 0.04 0.05 0.06 0.06 0.05 0.04 0.03 0.03 0.03 0.04 0.05 0.06 0.08 0.09 0.09 0.09 0.09 0.08 0.08 0.07
0.02 0.03 0.03 0.02 0.02 0.02 0.02 0.03 0.02 0.02 0.03 0.05 0.03 0.02 0.01 0.01 0.03 0.06 0.05 0.05 0.05 0.06 0.07 0.07 0.05 0.05 0.06 0.07 0.05 0.04 0.02 0.01 0.02 0.02 0.03 0.04 0.06 0.06 0.07 0.08 0.07 0.06 0.05 0.04
0.01 0.02 0.01 0.01 0.01 0.02 0.03 0.04 0.04 0.02 0.01 0.01 0.01 0.01 0.03 0.03 0.02 0.04 0.08 0.09 0.08 0.06 0.06 0.06 0.08 0.09 0.06 0.05 0.04 0.02 0.01 0.01 0.01 0.01 0.03 0.06 0.08 0.08 0.08 0.06 0.05 0.05 0.04 0.04
0.01 0.01 0.01 0.02 0.02 0.02 0.02 0.02 0.02 0.02 0.02 0.01 0.01 0.01 0.01 0.02 0.03 0.03 0.06 0.07 0.07 0.07 0.06 0.07 0.07 0.05 0.04 0.03 0.02 0.02 0.02 0.01 0.01 0.01 0.02 0.04 0.04 0.04 0.04 0.04 0.03 0.03 0.02 0.02
0.01 0.02 0.02 0.02 0.02 0.02 0.02 0.02 0.01 0.01 0.02 0.01 0.01 0.01 0.01 0.01 0.03 0.03 0.03 0.03 0.03 0.03 0.03 0.04 0.05 0.05 0.05 0.03 0.02 0.02 0.02 0.01 0.01 0.01 0.01 0.01 0.01 0.02 0.02 0.03 0.03 0.02 0.02 0.02
0.04 0.04 0.04 0.03 0.02 0.02 0.01 0.01 0.01 0.01 0.01 0.01 0.01 0.01 0.01 0.01 0.02 0.01 0.01 0.01 0.02 0.02 0.03 0.03 0.03 0.03 0.04 0.04 0.04 0.03 0.02 0.02 0.01 0.01 0.01 0.01 0.01 0.01 0.03 0.03 0.04 0.04 0.03 0.03
0.02 0.02 0.02 0.02 0.02 0.03 0.02 0.01 0.01 0.01 0.01 0.02 0.02 0.02 0.01 0.01 0.01 0.01 0.01 0.01 0.01 0.02 0.02 0.02 0.03 0.04 0.03 0.03 0.03 0.02 0.02 0.02 0.02 0.02 0.02 0.01 0.01 0.01 0.02 0.03 0.03 0.03 0.04 0.04
0.01 0.01 0.03 0.04 0.03 0.02 0.02 0.01 0.01 0.01 0.01 0.01 0.01 0.01 0.01 0.01 0.01 0.01 0.01 0.01 0.01 0.02 0.02 0.02 0.03 0.03 0.04 0.03 0.02 0.02 0.02 0.02 0.02 0.02 0.02 0.01 0.01 0.01 0.01 0.01 0.02 0.02 0.03 0.04
0.01 0.01 0.01 0.02 0.03 0.03 0.02 0.02 0.01 0.01 0.01 0.01 0.03 0.02 0.02 0.01 0.01 0.01 0.01 0.01 0.01 0.02 0.02 0.02 0.02 0.02 0.02 0.02 0.03 0.02 0.02 0.02 0.02 0.01 0.01 0.01 0.01 0.00 0.01 0.01 0.01 0.01 0.01 0.03
0.01 0.00 0.00 0.01 0.02 0.04 0.06 0.03 0.02 0.02 0.02 0.02 0.03 0.02 0.02 0.01 0.01 0.01 0.01 0.01 0.01 0.01 0.01 0.01 0.01 0.01 0.01 0.02 0.02 0.02 0.02 0.02 0.01 0.01 0.01 0.01 0.01 0.01 0.01 0.01 0.02 0.02 0.02 0.03
0.01 0.01 0.01 0.02 0.03 0.03 0.03 0.03 0.02 0.02 0.02 0.02 0.02 0.02 0.02 0.02 0.02 0.02 0.01 0.01 0.01 0.01 0.01 0.01 0.01 0.01 0.02 0.02 0.02 0.03 0.02 0.02 0.02 0.02 0.01 0.02 0.03 0.02 0.02 0.02 0.02 0.02 0.03 0.02
0.01 0.02 0.02 0.03 0.03 0.03 0.02 0.01 0.01 0.02 0.03 0.03 0.02 0.03 0.03 0.02 0.02 0.02 0.02 0.01 0.01 0.01 0.01 0.01 0.01 0.02 0.02 0.03 0.03 0.02 0.02 0.02 0.02 0.02 0.02 0.03 0.04 0.04 0.04 0.04 0.03 0.03 0.03 0.02
0.01 0.01 0.01 0.04 0.04 0.03 0.03 0.02 0.02 0.02 0.02 0.02 0.03 0.03 0.03 0.02 0.03 0.03 0.02 0.01 0.01 0.02 0.01 0.02 0.02 0.02 0.02 0.02 0.02 0.02 0.02 0.02 0.02 0.02 0.03 0.04 0.05 0.04 0.03 0.03 0.04 0.03 0.02 0.02
0.01 0.01 0.01 0.04 0.06 0.06 0.06 0.03 0.02 0.02 0.02 0.02 0.03 0.03 0.03 0.03 0.03 0.02 0.02 0.01 0.01 0.01 0.02 0.03 0.03 0.02 0.03 0.03 0.03 0.03 0.03 0.03 0.03 0.03 0.04 0.04 0.04 0.03 0.02 0.01 0.01 0.01 0.02 0.03
0.02 0.02 0.03 0.04 0.05 0.07 0.09 0.05 0.02 0.01 0.01 0.02 0.02 0.03 0.03 0.04 0.03 0.03 0.02 0.02 0.01 0.02 0.02 0.03 0.03 0.03 0.03 0.03 0.03 0.04 0.04 0.04 0.04 0.05 0.06 0.06 0.04 0.03 0.02 0.01 0.01 0.01 0.02 0.02
0.03 0.04 0.04 0.05 0.05 0.05 0.07 0.08 0.04 0.03 0.03 0.03 0.04 0.04 0.05 0.04 0.03 0.03 0.03 0.03 0.02 0.02 0.03 0.03 0.03 0.04 0.05 0.05 0.05 0.05 0.05 0.06 0.05 0.05 0.07 0.09 0.08 0.05 0.03 0.01 0.01 0.01 0.01 0.01
0.04 0.04 0.06 0.06 0.04 0.04 0.04 0.06 0.05 0.03 0.03 0.04 0.04 0.05 0.05 0.04 0.04 0.04 0.04 0.03 0.02 0.02 0.02 0.03 0.03 0.04 0.06 0.06 0.09 0.10 0.10 0.08 0.08 0.07 0.07 0.08 0.09 0.08 0.05 0.03 0.02 0.02 0.02 0.01
0.03 0.03 0.04 0.04 0.04 0.03 0.03 0.03 0.04 0.04 0.04 0.05 0.05 0.06 0.05 0.04 0.04 0.03 0.03 0.02 0.03 0.02 0.02 0.03 0.03 0.04 0.05 0.05 0.06 0.08 0.08 0.08 0.08 0.07 0.08 0.08 0.07 0.07 0.06 0.04 0.03 0.03 0.02 0.01
0.05 0.05 0.04 0.04 0.05 0.04 0.03 0.02 0.04 0.05 0.05 0.05 0.06 0.05 0.04 0.03 0.03 0.03 0.03 0.03 0.04 0.04 0.02 0.02 0.03 0.04 0.05 0.08 0.09 0.09 0.08 0.09 0.11 0.09 0.05 0.05 0.05 0.06 0.05 0.04 0.03 0.02 0.02 0.01
0.06 0.07 0.05 0.05 0.05 0.06 0.05 0.05 0.06 0.07 0.06 0.05 0.06 0.06 0.05 0.03 0.03 0.03 0.03 0.03 0.03 0.03 0.01 0.01 0.02 0.02 0.02 0.04 0.06 0.07 0.06 0.06 0.07 0.08 0.09 0.07 0.06 0.06 0.06 0.05 0.04 0.03 0.02 0.02
0.05 0.06 0.04 0.04 0.05 0.06 0.06 0.06 0.09 0.08 0.05 0.05 0.05 0.05 0.05 0.04 0.03 0.03 0.03 0.02 0.01 0.01 0.01 0.01 0.02 0.01 0.02 0.03 0.04 0.04 0.04 0.05 0.07 0.08 0.09 0.09 0.09 0.09 0.09 0.08 0.06 0.05 0.04 0.04
MSLP
1009.53 1009.49 1009.47 1009.53 1009.71 1010.00 1010.38 1010.81 1011.24 1011.62 1011.89 1012.05 1012.08 1012.01 1011.85 1011.64 1011.40 1011.15 1010.88 1010.58 1010.23 1009.81 1009.31 1008.73 1008.05 1007.32 1006.55 1005.77 1005.02 1004.33 1003.72 1003.20 1002.78 1002.47 1002.26 1002.15 1002.12 1002.17 1002.30 1002.49 1002.74 1003.04 1003.38 1003.75
1010.43 1010.35 1010.21 1010.07 1009.99 1010.00 1010.12 1010.34 1010.63 1010.96 1011.29 1011.58 1011.82 1011.97 1012.04 1012.04 1011.94 1011.77 1011.52 1011.19 1010.78 1010.28 1009.69 1009.02 1008.28 1007.49 1006.65 1005.80 1004.96 1004.16 1003.40 1002.72 1002.12 1001.63 1001.25 1000.99 1000.86 1000.84 1000.95 1001.16 1001.46 1001.84 1002.28 1002.77
1011.29 1011.19 1010.95 1010.67 1010.39 1010.19 1010.09 1010.12 1010.28 1010.55 1010.88 1011.25 1011.60 1011.90 1012.13 1012.25 1012.26 1012.15 1011.92 1011.58 1011.14 1010.61 1010.00 1009.32 1008.58 1007.78 1006.96 1006.09 1005.22 1004.34 1003.48 1002.66 1001.91 1001.24 1000.70 1000.29 1000.04 999.94 1000.00 1000.22 1000.55 1001.00 1001.53 1002.12
1012.00 1011.87 1011.58 1011.20 1010.79 1010.44 1010.20 1010.09 1010.14 1010.33 1010.64 1011.02 1011.43 1011.80 1012.10 1012.29 1012.36 1012.28 1012.08 1011.75 1011.32 1010.81 1010.23 1009.60 1008.92 1008.20 1007.44 1006.63 1005.77 1004.88 1003.97 1003.06 1002.19 1001.40 1000.71 1000.17 999.81 999.63 999.64 999.84 1000.19 1000.68 1001.27 1001.93
1012.44 1012.27 1011.94 1011.51 1011.04 1010.61 1010.28 1010.10 1010.07 1010.21 1010.48 1010.85 1011.25 1011.64 1011.97 1012.19 1012.28 1012.23 1012.04 1011.75 1011.36 1010.91 1010.41 1009.88 1009.31 1008.71 1008.06 1007.34 1006.56 1005.71 1004.80 1003.87 1002.94 1002.06 1001.28 1000.65 1000.20 999.96 999.92 1000.09 1000.43 1000.93 1001.54 1002.23
1012.50 1012.29 1011.94 1011.49 1011.01 1010.57 1010.22 1010.00 1009.95 1010.05 1010.30 1010.64 1011.04 1011.42 1011.74 1011.97 1012.07 1012.04 1011.90 1011.65 1011.32 1010.96 1010.56 1010.15 1009.72 1009.25 1008.73 1008.15 1007.47 1006.70 1005.86 1004.95 1004.03 1003.13 1002.32 1001.65 1001.15 1000.86 1000.78 1000.91 1001.23 1001.70 1002.29 1002.96
1012.18 1011.91 1011.54 1011.09 1010.64 1010.22 1009.90 1009.71 1009.67 1009.78 1010.02 1010.35 1010.74 1011.12 1011.44 1011.67 1011.79 1011.80 1011.70 1011.51 1011.27 1010.99 1010.70 1010.40 1010.10 1009.76 1009.38 1008.92 1008.37 1007.72 1006.97 1006.15 1005.29 1004.44 1003.66 1003.00 1002.50 1002.19 1002.08 1002.18 1002.45 1002.87 1003.40 1003.99
1011.52 1011.18 1010.79 1010.36 1009.95 1009.60 1009.33 1009.20 1009.20 1009.35 1009.61 1009.96 1010.36 1010.74 1011.08 1011.35 1011.50 1011.56 1011.52 1011.40 1011.23 1011.04 1010.84 1010.64 1010.43 1010.20 1009.93 1009.58 1009.15 1008.62 1007.99 1007.29 1006.54 1005.80 1005.10 1004.50 1004.04 1003.74 1003.62 1003.68 1003.89 1004.23 1004.67 1005.16
1010.65 1010.24 1009.83 1009.42 1009.06 1008.77 1008.59 1008.53 1008.60 1008.80 1009.11 1009.49 1009.92 1010.34 1010.72 1011.03 1011.24 1011.36 1011.39 1011.35 1011.25 1011.12 1010.98 1010.84 1010.69 1010.52 1010.32 1010.06 1009.72 1009.30 1008.80 1008.23 1007.62 1007.01 1006.44 1005.94 1005.55 1005.29 1005.17 1005.20 1005.34 1005.59 1005.91 1006.28
1009.71 1009.25 1008.81 1008.43 1008.12 1007.91 1007.80 1007.81 1007.95 1008.21 1008.57 1009.00 1009.47 1009.94 1010.38 1010.75 1011.04 1011.23 1011.34 1011.36 1011.32 1011.24 1011.14 1011.01 1010.88 1010.72 1010.54 1010.32 1010.05 1009.71 1009.33 1008.89 1008.43 1007.97 1007.53 1007.15 1006.85 1006.64 1006.54 1006.53 1006.61 1006.76 1006.97 1007.20
1008.83 1008.34 1007.90 1007.55 1007.29 1007.13 1007.09 1007.17 1007.37 1007.68 1008.08 1008.55 1009.07 1009.59 1010.09 1010.53 1010.90 1011.17 1011.35 1011.44 1011.45 1011.39 1011.29 1011.16 1011.00 1010.82 1010.62 1010.40 1010.15 1009.88 1009.57 1009.25 1008.92 1008.60 1008.30 1008.04 1007.83 1007.68 1007.59 1007.56 1007.58 1007.64 1007.73 1007.84
1008.09 1007.59 1007.18 1006.86 1006.65 1006.55 1006.56 1006.69 1006.92 1007.27 1007.70 1008.20 1008.75 1009.31 1009.86 1010.36 1010.80 1011.15 1011.39 1011.54 1011.58 1011.54 1011.44 1011.27 1011.07 1010.84 1010.60 1010.35 1010.10 1009.84 1009.60 1009.36 1009.14 1008.93 1008.74 1008.58 1008.45 1008.35 1008.28 1008.22 1008.20 1008.18 1008.18 1008.20
1007.46 1007.00 1006.64 1006.37 1006.21 1006.17 1006.22 1006.38 1006.64 1007.00 1007.44 1007.95 1008.51 1009.09 1009.68 1010.22 1010.71 1011.12 1011.42 1011.61 1011.69 1011.67 1011.55 1011.36 1011.11 1010.83 1010.54 1010.25 1009.97 1009.72 1009.50 1009.32 1009.16 1009.03 1008.93 1008.84 1008.77 1008.70 1008.64 1008.57 1008.50 1008.44 1008.37 1008.32
1006.89 1006.49 1006.20 1006.01 1005.92 1005.93 1006.03 1006.22 1006.49 1006.85 1007.28 1007.78 1008.33 1008.91 1009.51 1010.08 1010.60 1011.05 1011.40 1011.63 1011.74 1011.73 1011.62 1011.41 1011.14 1010.82 1010.49 1010.16 1009.86 1009.60 1009.38 1009.21 1009.09 1009.01 1008.95 1008.91 1008.86 1008.82 1008.75 1008.68 1008.59 1008.49 1008.39 1008.31
1006.27 1005.96 1005.76 1005.66 1005.66 1005.73 1005.89 1006.11 1006.40 1006.76 1007.18 1007.66 1008.18 1008.75 1009.33 1009.90 1010.43 1010.90 1011.28 1011.55 1011.70 1011.72 1011.63 1011.43 1011.16 1010.83 1010.48 1010.13 1009.81 1009.53 1009.31 1009.14 1009.03 1008.96 1008.91 1008.88 1008.84 1008.80 1008.73 1008.65 1008.55 1008.45 1008.34 1008.25
1005.54 1005.33 1005.23 1005.24 1005.33 1005.49 1005.72 1005.99 1006.31 1006.68 1007.09 1007.54 1008.04 1008.58 1009.13 1009.68 1010.21 1010.68 1011.08 1011.38 1011.56 1011.62 1011.56 1011.40 1011.16 1010.85 1010.51 1010.17 1009.84 1009.56 1009.33 1009.15 1009.02 1008.93 1008.87 1008.83 1008.79 1008.73 1008.67 1008.58 1008.49 1008.39 1008.30 1008.23
1004.68 1004.57 1004.57 1004.68 1004.88 1005.14 1005.45 1005.80 1006.17 1006.56 1006.98 1007.43 1007.90 1008.40 1008.92 1009.44 1009.95 1010.41 1010.81 1011.13 1011.34 1011.44 1011.44 1011.33 1011.13 1010.87 1010.57 1010.25 1009.95 1009.67 1009.42 1009.23 1009.08 1008.96 1008.88 1008.81 1008.74 1008.68 1008.60 1008.52 1008.44 1008.36 1008.30 1008.26
1003.77 1003.73 1003.82 1004.03 1004.33 1004.70 1005.11 1005.54 1005.98 1006.42 1006.87 1007.32 1007.79 1008.26 1008.74 1009.23 1009.70 1010.13 1010.52 1010.84 1011.08 1011.21 1011.26 1011.20 1011.07 1010.87 1010.62 1010.35 1010.07 1009.80 1009.56 1009.35 1009.17 1009.03 1008.91 1008.81 1008.72 1008.64 1008.57 1008.49 1008.43 1008.38 1008.35 1008.35
1002.93 1002.93 1003.09 1003.37 1003.77 1004.23 1004.73 1005.26 1005.78 1006.29 1006.78 1007.26 1007.73 1008.19 1008.64 1009.08 1009.51 1009.91 1010.26 1010.57 1010.80 1010.96 1011.04 1011.04 1010.96 1010.82 1010.63 1010.40 1010.16 1009.91 1009.68 1009.46 1009.26 1009.09 1008.94 1008.81 1008.71 1008.62 1008.54 1008.48 1008.44 1008.43 1008.43 1008.46
1002.31 1002.32 1002.51 1002.84 1003.29 1003.83 1004.42 1005.03 1005.63 1006.22 1006.77 1007.28 1007.76 1008.22 1008.64 1009.05 1009.42 1009.77 1010.08 1010.35 1010.57 1010.72 1010.82 1010.84 1010.80 1010.71 1010.56 1010.38 1010.17 1009.94 1009.72 1009.49 1009.28 1009.09 1008.93 1008.78 1008.67 1008.57 1008.51 1008.47 1008.45 1008.46 1008.49 1008.55
1002.04 1002.02 1002.20 1002.54 1003.02 1003.60 1004.25 1004.92 1005.59 1006.24 1006.84 1007.40 1007.90 1008.35 1008.76 1009.12 1009.45 1009.74 1009.99 1010.21 1010.38 1010.51 1010.59 1010.62 1010.60 1010.52 1010.41 1010.25 1010.06 1009.86 1009.64 1009.42 1009.21 1009.02 1008.84 1008.69 1008.57 1008.49 1008.44 1008.42 1008.43 1008.46 1008.52 1008.59
1002.16 1002.09 1002.22 1002.53 1003.00 1003.59 1004.25 1004.96 1005.67 1006.36 1007.01 1007.59 1008.11 1008.56 1008.95 1009.28 1009.56 1009.78 1009.97 1010.13 1010.24 1010.32 1010.37 1010.37 1010.34 1010.27 1010.16 1010.02 1009.85 1009.66 1009.46 1009.25 1009.04 1008.85 1008.68 1008.54 1008.44 1008.37 1008.34 1008.34 1008.37 1008.42 1008.49 1008.56
1002.66 1002.52 1002.57 1002.82 1003.23 1003.78 1004.42 1005.12 1005.84 1006.54 1007.21 1007.81 1008.34 1008.79 1009.16 1009.45 1009.68 1009.86 1009.98 1010.07 1010.12 1010.14 1010.14 1010.11 1010.05 1009.96 1009.85 1009.72 1009.56 1009.38 1009.19 1009.00 1008.81 1008.64 1008.49 1008.37 1008.29 1008.24 1008.23 1008.26 1008.30 1008.37 1008.44 1008.51
1003.43 1003.20 1003.16 1003.31 1003.64 1004.11 1004.69 1005.34 1006.03 1006.72 1007.37 1007.98 1008.50 1008.94 1009.30 1009.57 1009.76 1009.89 1009.97 1010.00 1009.99 1009.96 1009.91 1009.84 1009.75 1009.64 1009.52 1009.39 1009.24 1009.08 1008.91 1008.74 1008.59 1008.44 1008.32 1008.24 1008.18 1008.16 1008.17 1008.21 1008.27 1008.34 1008.41 1008.47
1004.30 1003.99 1003.86 1003.90 1004.12 1004.49 1004.98 1005.56 1006.18 1006.82 1007.44 1008.02 1008.53 1008.96 1009.30 1009.56 1009.73 1009.83 1009.87 1009.87 1009.82 1009.75 1009.67 1009.57 1009.46 1009.34 1009.22 1009.09 1008.96 1008.83 1008.69 1008.56 1008.44 1008.33 1008.25 1008.20 1008.17 1008.17 1008.20 1008.25 1008.32 1008.38 1008.44 1008.47
1005.14 1004.76 1004.54 1004.48 1004.59 1004.85 1005.22 1005.70 1006.23 1006.80 1007.37 1007.90 1008.39 1008.80 1009.13 1009.38 1009.55 1009.65 1009.68 1009.67 1009.61 1009.53 1009.44 1009.33 1009.23 1009.12 1009.01 1008.90 1008.80 1008.70 1008.61 1008.52 1008.45 1008.39 1008.34 1008.32 1008.32 1008.35 1008.38 1008.43 1008.48 1008.53 1008.56 1008.57
1005.81 1005.39 1005.11 1004.96 1004.97 1005.11 1005.37 1005.73 1006.16 1006.65 1007.14 1007.63 1008.08 1008.48 1008.80 1009.06 1009.24 1009.36 1009.41 1009.42 1009.38 1009.32 1009.25 1009.17 1009.09 1009.02 1008.95 1008.88 1008.83 1008.78 1008.73 1008.70 1008.67 1008.65 1008.65 1008.66 1008.68 1008.71 1008.74 1008.77 1008.80 1008.82 1008.81 1008.79
Thickness
5780 5787 5790 5787 5787 5788 5780 5769 5758 5760 5763 5769 5777 5780 5783 5784 5782 5780 5778 5777 5775 5772 5771 5770 5768 5767 5766 5765 5764 5762 5758 5754 5751 5749 5746 5743 5739 5736 5733 5730 5727 5724 5721 5718
5771 5783 5783 5779 5783 5785 5781 5777 5769 5766 5763 5779 5783 5782 5780 5779 5778 5775 5773 5772 5771 5769 5767 5765 5764 5763 5761 5760 5758 5756 5751 5748 5746 5742 5739 5735 5733 5730 5726 5723 5721 5718 5714 5712
5746 5763 5766 5753 5770 5774 5771 5774 5769 5758 5764 5775 5773 5773 5772 5774 5773 5770 5769 5768 5766 5764 5762 5760 5760 5759 5757 5755 5753 5750 5745 5741 5738 5735 5732 5729 5727 5723 5720 5717 5714 5711 5709 5706
5735 5742 5727 5750 5776 5778 5769 5767 5771 5769 5770 5772 5771 5772 5772 5772 5768 5765 5765 5764 5762 5760 5757 5756 5755 5753 5751 5749 5745 5741 5737 5734 5731 5729 5726 5723 5720 5716 5714 5711 5708 5705 5702 5700
5720 5719 5727 5752 5768 5769 5758 5749 5763 5762 5764 5766 5767 5764 5760 5766 5766 5764 5762 5761 5759 5757 5754 5751 5748 5746 5743 5739 5736 5732 5729 5727 5725 5722 5719 5715 5712 5710 5708 5704 5702 5699 5697 5693
5717 5714 5712 5736 5765 5774 5759 5734 5756 5758 5756 5757 5756 5738 5742 5758 5759 5759 5757 5755 5753 5751 5748 5744 5742 5740 5735 5730 5727 5724 5722 5720 5718 5715 5712 5709 5707 5705 5702 5699 5696 5693 5690 5686
5711 5708 5717 5744 5761 5762 5728 5726 5751 5753 5752 5752 5746 5743 5747 5752 5751 5751 5750 5748 5746 5743 5738 5736 5734 5731 5726 5722 5719 5718 5716 5713 5711 5708 5706 5704 5701 5699 5696 5693 5689 5685 5682 5678
5704 5699 5708 5745 5748 5737 5734 5745 5748 5748 5748 5746 5744 5745 5746 5744 5743 5742 5740 5739 5737 5733 5728 5727 5726 5723 5717 5715 5714 5712 5709 5705 5703 5701 5700 5699 5695 5692 5689 5686 5681 5677 5673 5669
5710 5711 5728 5741 5741 5744 5743 5741 5743 5742 5743 5741 5738 5735 5736 5735 5733 5732 5730 5729 5728 5725 5720 5719 5719 5716 5711 5709 5708 5705 5701 5697 5695 5694 5692 5690 5687 5684 5681 5677 5673 5669 5665 5661
5710 5719 5727 5732 5737 5740 5741 5739 5740 5739 5737 5735 5730 5729 5727 5725 5723 5722 5721 5720 5719 5716 5712 5710 5710 5709 5706 5704 5702 5698 5693 5690 5688 5685 5683 5682 5680 5677 5673 5670 5666 5662 5658 5654
5702 5712 5717 5723 5727 5731 5733 5734 5734 5733 5732 5729 5727 5722 5718 5716 5715 5714 5714 5712 5710 5707 5704 5703 5702 5701 5699 5697 5694 5689 5686 5683 5680 5678 5675 5673 5671 5668 5666 5664 5661 5657 5654 5650
5693 5704 5704 5709 5720 5725 5723 5723 5724 5723 5722 5723 5721 5716 5712 5709 5707 5707 5706 5705 5702 5699 5697 5695 5694 5692 5691 5689 5686 5681 5677 5675 5672 5670 5667 5665 5662 5660 5659 5657 5655 5652 5649 5645
5704 5708 5707 5711 5715 5717 5716 5716 5717 5716 5715 5713 5712 5711 5707 5702 5701 5700 5698 5696 5693 5691 5690 5688 5686 5684 5682 5681 5678 5674 5670 5667 5665 5663 5660 5657 5654 5651 5648 5647 5646 5644 5641 5638
5705 5703 5699 5703 5704 5708 5709 5709 5709 5708 5707 5706 5704 5702 5699 5696 5694 5692 5690 5689 5687 5684 5682 5680 5677 5675 5674 5673 5670 5666 5663 5661 5659 5655 5653 5650 5648 5644 5641 5638 5635 5634 5633 5631
5698 5698 5695 5697 5698 5699 5700 5699 5696 5695 5695 5694 5694 5691 5689 5686 5684 5683 5682 5681 5679 5675 5673 5670 5668 5666 5666 5664 5661 5658 5655 5653 5651 5649 5647 5644 5641 5637 5634 5632 5629 5626 5624 5622
5690 5690 5689 5689 5688 5689 5689 5688 5685 5684 5684 5684 5683 5681 5680 5678 5676 5676 5675 5673 5668 5665 5663 5661 5660 5659 5658 5656 5653 5650 5647 5647 5644 5641 5639 5636 5633 5630 5627 5624 5621 5618 5616 5614
5677 5676 5678 5678 5679 5680 5680 5680 5678 5676 5675 5675 5674 5673 5672 5669 5667 5666 5665 5664 5661 5659 5657 5655 5653 5653 5651 5648 5645 5642 5640 5638 5638 5634 5630 5628 5626 5623 5620 5617 5614 5611 5609 5608
5675 5676 5676 5674 5673 5672 5672 5672 5671 5670 5668 5668 5667 5665 5662 5659 5657 5656 5656 5655 5653 5651 5650 5648 5647 5645 5643 5640 5637 5635 5632 5630 5628 5626 5623 5621 5619 5617 5614 5611 5608 5606 5604 5601
5670 5669 5669 5669 5668 5666 5664 5663 5662 5662 5661 5659 5657 5654 5653 5651 5650 5649 5648 5646 5643 5641 5641 5641 5640 5637 5635 5633 5631 5628 5626 5623 5621 5619 5617 5615 5612 5610 5607 5604 5602 5599 5597 5594
5662 5662 5662 5661 5661 5659 5657 5656 5655 5653 5652 5651 5648 5645 5643 5643 5642 5641 5639 5637 5635 5635 5635 5633 5631 5629 5628 5626 5625 5621 5619 5617 5614 5611 5609 5607 5605 5602 5600 5597 5595 5592 5590 5587
5652 5652 5652 5650 5650 5651 5650 5649 5647 5645 5645 5643 5640 5638 5636 5635 5635 5633 5630 5628 5629 5629 5628 5626 5624 5622 5621 5619 5617 5614 5612 5609 5607 5604 5602 5599 5597 5594 5591 5589 5587 5585 5582 5580
5643 5643 5642 5641 5641 5640 5641 5640 5639 5638 5637 5635 5634 5632 5629 5628 5627 5625 5624 5622 5623 5622 5620 5618 5617 5615 5614 5612 5609 5606 5604 5601 5599 5596 5593 5591 5588 5585 5583 5580 5578 5576 5574 5571
5635 5635 5634 5634 5633 5632 5633 5631 5630 5630 5629 5627 5626 5624 5622 5620 5619 5616 5614 5616 5616 5615 5613 5611 5609 5608 5606 5603 5600 5598 5595 5593 5590 5587 5585 5582 5579 5577 5573 5571 5569 5567 5565 5562
5628 5628 5628 5628 5627 5625 5623 5623 5623 5622 5621 5620 5619 5618 5615 5613 5611 5611 5611 5611 5609 5607 5604 5603 5602 5600 5597 5594 5591 5589 5586 5584 5581 5579 5577 5574 5571 5569 5566 5563 5560 5558 5556 5554
5621 5621 5621 5620 5618 5617 5616 5616 5615 5614 5614 5612 5612 5611 5609 5607 5605 5605 5604 5603 5602 5599 5597 5595 5594 5592 5589 5585 5583 5580 5577 5575 5573 5571 5568 5566 5563 5561 5559 5557 5554 5551 5549 5546
5614 5614 5614 5614 5612 5611 5610 5608 5606 5605 5605 5603 5602 5602 5601 5600 5599 5598 5596 5595 5594 5592 5589 5587 5585 5583 5580 5578 5575 5572 5570 5568 5566 5563 5561 5559 5557 5555 5552 5551 5548 5544 5542 5539
5609 5608 5607 5606 5606 5606 5605 5603 5600 5599 5598 5597 5595 5594 5593 5593 5592 5590 5589 5588 5586 5584 5582 5579 5577 5575 5573 5571 5568 5566 5563 5561 5559 5557 5555 5553 5550 5548 5546 5544 5541 5538 5535 5533